This is the latest recevied weather packets stored in our database for station/object IT9CNT. If no packets are shown the sender has not sent any weather packets the latest 10 day(s).
| Time | Temp. | Humidity | Pressure | Rain* | Wind** | Luminosity | Snow |
|---|---|---|---|---|---|---|---|
| 1787661783 | 32.22° C | 74% | 1014 hPa | 0 mm | - | - | - |
| 1787661723 | 32.22° C | 74% | 1014 hPa | 0 mm | - | - | - |
| 1787661663 | 32.22° C | 74% | 1014.1 hPa | 0 mm | - | - | - |
| 1787661603 | 32.22° C | 75% | 1013.8 hPa | 0 mm | - | - | - |
| 1787661543 | 32.22° C | 75% | 1013.9 hPa | 0 mm | - | - | - |
| 1787661483 | 31.67° C | 74% | 1013.8 hPa | 0 mm | - | - | - |
| 1787661423 | 31.67° C | 74% | 1014 hPa | 0 mm | - | - | - |
| 1787661363 | 32.22° C | 73% | 1014 hPa | 0 mm | - | - | - |
| 1787661303 | 32.22° C | 73% | 1013.9 hPa | 0 mm | - | - | - |
| 1787661243 | 32.22° C | 73% | 1014 hPa | 0 mm | - | - | - |
| 1787661183 | 32.22° C | 73% | 1013.8 hPa | 0 mm | - | - | - |
| 1787661123 | 31.67° C | 74% | 1014.1 hPa | 0 mm | - | - | - |
| 1787661063 | 32.22° C | 78% | 1014.2 hPa | 0 mm | - | - | - |
| 1787661003 | 32.22° C | 78% | 1014.3 hPa | 0.51 mm | - | - | - |
| 1787660944 | 31.67° C | 79% | 1014.4 hPa | 0.51 mm | - | - | - |
| 1787660884 | 31.67° C | 79% | 1014.1 hPa | 0.51 mm | - | - | - |
| 1787660824 | 31.67° C | 79% | 1013.8 hPa | 0.51 mm | - | - | - |
| 1787660763 | 31.67° C | 79% | 1013.9 hPa | 0.51 mm | - | - | - |
| 1787660704 | 31.67° C | 79% | 1013.8 hPa | 0.51 mm | - | - | - |
| 1787660643 | 32.22° C | 76% | 1013.8 hPa | 0.51 mm | - | - | - |
| 1787660584 | 32.22° C | 76% | 1013.9 hPa | 0.51 mm | - | - | - |
| 1787660523 | 32.22° C | 76% | 1014 hPa | 0.51 mm | - | - | - |
| 1787660463 | 32.22° C | 77% | 1014 hPa | 0.51 mm | - | - | - |
| 1787660404 | 32.22° C | 75% | 1014 hPa | 0.51 mm | - | - | - |
| 1787660343 | 32.22° C | 74% | 1013.8 hPa | 0.51 mm | - | - | - |
* Rain latest hour (hover to see other rain measurements)
** Current wind speed in m/s (hover to see current wind gust speed)